Location: Albany
(35.0000°S, 118.0000°E)
Time: 12:57:51
(UTC-04:00)

Daily predictions for brighter satellites

Satellite Brightness Start Highest point End
(mag) Time Altitude Azimuth Time Altitude Azimuth Time Altitude Azimuth
H-2A R/B 4.5 15:43:39 33° N 15:46:37 40° NE 16:44:45 10° E
H-2A R/B 4.5 15:43:39 33° N 15:46:38 40° NE 16:44:45 10° E
Cosmos 2333 Rocket 3.8 16:02:17 28° SE 16:02:17 28° SE 16:05:05 10° SE
Cosmos 1980 4.4 16:17:53 52° ENE 16:17:53 52° ENE 16:23:17 10° SSE
Cosmos 2219 Rocket 3.8 16:27:59 24° SSE 16:27:59 24° SSE 16:30:12 10° SSE
USA 234 3.1 16:18:18 10° SE 16:24:58 87° NE 16:25:07 85° N
Cosmos 1092 Rocket 3.9 16:33:01 71° S 16:33:46 85° E 16:40:03 10° N
SL-16 R/B 4.2 16:31:25 10° NNE 16:36:02 26° ENE 16:40:42 10° SE
Cosmos 1570 Rocket 4.2 16:36:36 66° NE 16:36:51 68° ENE 16:42:08 10° SSE
Cosmos 2237 Rocket 2.3 16:36:33 59° NNE 16:37:31 72° ENE 16:43:12 10° SSE
Cosmos 1844 3.7 16:38:46 78° SSE 16:39:02 81° ESE 16:44:52 10° NNE
Cosmos 1634 Rocket 3.9 16:34:39 10° N 16:40:50 88° E 16:47:09 10° S
NOSS 0 Rocket 3.8 16:46:27 64° NW 16:47:25 79° WSW 16:53:45 10° SSE
PAYLOAD A 4.3 16:46:12 10° NNE 16:50:48 58° ESE 16:53:06 29° S
Cosmos 2278 Rocket 2.8 16:50:28 25° S 16:53:43 55° ESE 16:59:17 10° NE
Cosmos 1733 Rocket 3.2 16:57:47 64° N 16:57:47 64° N 17:01:32 10° N
Ariane Rocket 3.4 16:52:42 10° NNE 16:57:44 61° ESE 17:02:12 13° S
Meteor 2-20 4.3 17:02:05 40° SSW 17:04:11 62° W 17:10:09 10° N
CZ-2C R/B 4.2 17:01:07 10° SSE 17:05:34 58° E 17:10:00 10° N
CZ-4C R/B 2.4 17:13:03 42° WNW 17:13:03 42° WNW 17:17:35 10° N
Okean 1-7 4.4 17:15:07 10° NNE 17:19:09 40° E 17:23:16 10° SSE
Cosmos 2208 Rocket 4.2 17:17:32 22° NW 17:20:48 51° WSW 17:26:09 10° S
SJ-12 4.1 17:17:53 10° NNE 17:22:00 71° ESE 17:26:09 10° S
Cosmos 2026 Rocket 4.0 17:17:40 10° SSW 17:24:03 65° W 17:30:22 10° N
MSX 4.2 17:18:39 10° NNE 17:24:22 65° ESE 17:30:10 10° S
Lacrosse 5 rocket 1.0 17:27:29 32° NW 17:29:15 82° SW 17:33:06 10° SE
ATLAS 2AS CENTAUR R/B 2.4 17:23:00 10° NW 17:29:30 76° WSW 17:35:38 10° SSE
Cosmos 1844 Rocket 3.7 17:30:25 25° WNW 17:30:25 25° WNW 17:34:19 10° NNW
GRACE-1 4.1 17:28:59 32° SSE 17:30:07 68° E 17:32:52 10° N
GRACE-2 4.1 17:29:18 29° SSE 17:30:33 67° E 17:33:19 10° N
CZ-4 R/B 2.0 17:27:13 10° NNE 17:31:18 60° ESE 17:35:22 10° S
Sich 1 Rocket 3.5 17:27:45 10° S 17:32:14 90° SSE 17:36:39 10° N
CZ-2C R/B 2.3 17:28:46 10° N 17:33:36 75° W 17:38:40 10° SSW
BREEZE-M DEB (TANK) 3.7 17:22:52 10° WNW 17:34:43 60° SW 17:37:54 10° SE
USA 116 4.5 17:30:28 10° SSE 17:35:51 80° ENE 17:40:47 10° N
OAO 1 4.5 17:33:44 31° W 17:36:30 88° S 17:42:02 10° E
EO 1 Del DPAF 3.3 17:33:07 10° S 17:36:58 55° WSW 17:40:46 10° NNW
Cosmos 371 Rocket 4.0 17:37:10 10° N 17:41:53 57° ENE 17:46:41 10° SSE
Centaur D-1A AC-32 4.1 17:38:43 10° NW 17:42:36 22° N 17:45:31 10° ENE
Cosmos 468 Rocket 3.8 17:37:42 10° NNW 17:42:49 71° WSW 17:48:01 10° SSE
Cosmos 2333 Rocket 3.3 17:44:22 22° SW 17:44:22 22° SW 17:48:28 10° S
CSL-04 Debris 4.3 17:41:03 10° N 17:46:23 55° W 17:51:45 10° SSW
IDEFIX/ARIANE 42P 2.8 17:43:32 10° N 17:48:34 47° W 17:53:40 10° SSW
Cosmos 1782 3.3 17:47:35 10° N 17:51:37 66° E 17:55:43 10° SSE
Cosmos 1703 Rocket 3.8 17:48:07 10° NNW 17:52:28 49° W 17:56:54 10° S
IRS-1A Rocket 4.3 17:47:00 10° N 17:52:42 70° WNW 17:58:22 10° SSW
BREEZE-M TANK 4.1 17:52:40 14° SSW 17:54:37 23° SSE 17:58:51 10° ESE
GPS 2-05 Rocket1 3.1 17:53:39 25° W 17:55:34 61° NNW 17:59:05 10° ENE
Thor Agena Rocket 4.3 17:53:14 10° SSE 17:58:19 56° E 18:03:25 10° N
SPOT 3 Rocket 3.8 17:56:17 10° NNE 18:01:29 73° ESE 18:06:46 10° S
Cosmos 1814 Rocket 4.0 17:57:02 10° NNW 18:02:20 67° WSW 18:07:39 10° SSE
Cosmos 1898 Rocket 3.5 17:58:02 10° SSW 18:03:22 76° WNW 18:08:35 10° N
Meteor 2-10 Rocket 4.4 17:59:08 10° NW 18:03:35 27° WSW 18:08:14 10° SSW
BREEZE-M DEB (TANK) 1.8 18:05:02 16° SW 18:07:25 84° SE 18:09:28 10° NE
Cosmos 990 Rocket 4.4 18:02:08 10° SSW 18:07:25 68° ESE 18:12:36 10° NNE
USA 234 4.2 18:01:56 10° SSE 18:07:25 29° SSW 18:12:30 11° W
Cosmos 2285 Rocket 4.3 18:01:45 10° N 18:08:05 75° ENE 18:14:33 10° SSE
Cosmos 2219 Rocket 4.0 18:09:48 10° SW 18:09:48 10° SW 18:10:30 10° SW
PSLV R/B 3.2 18:06:13 10° WNW 18:09:33 86° NNE 18:12:57 10° ESE
Cosmos 1763 Rocket 3.4 18:06:05 10° NNW 18:11:11 73° WSW 18:16:18 10° SSE
Cosmos 332 Rocket 4.0 18:10:19 10° NW 18:15:04 48° WSW 18:19:54 10° S
Cosmos 1606 2.7 18:12:19 10° NNW 18:16:14 69° W 18:20:11 10° S
Atlas 2A Centaur Rocket 4.0 18:13:20 10° WNW 18:16:38 33° N 18:27:03 10° ENE
Meteor 1-28 Rocket 3.1 18:14:06 10° S 18:17:56 72° WSW 18:21:42 10° NNW
Cosmos 1241 Rocket 4.4 18:12:40 10° NW 18:18:48 69° WSW 18:25:01 10° SSE
Cosmos 2266 Rocket 3.9 18:13:27 10° SSW 18:19:31 69° W 18:25:34 10° N
SL-16 R/B 2.7 18:14:44 10° NW 18:19:55 36° WSW 18:25:10 10° S
Cosmos 2297 3.8 18:14:14 10° SSW 18:19:55 62° WNW 18:25:34 10° N
Meteor 1-20 Rocket 4.2 18:14:33 10° SSW 18:20:04 66° W 18:25:28 10° N
COSMO-SKYMED 1 2.5 18:15:41 10° S 18:20:06 79° WSW 18:24:28 10° NNW
Meteor 1-10 Rocket 4.3 18:14:52 10° NNW 18:20:37 76° W 18:26:33 10° S
Cosmos 2237 Rocket 3.7 18:18:59 10° W 18:22:09 15° SW 18:25:20 10° SSW
USA 238 DEB 4.3 18:16:16 10° SSW 18:23:17 61° SE 18:30:12 10° NE
USA 238 4.3 18:16:22 10° SSW 18:23:24 60° SE 18:30:17 10° NE
Abrixas 3.9 18:27:30 10° SSW 18:30:01 27° SSE 18:32:30 10° E
ASTRO E2 4.2 18:29:02 10° NW 18:32:45 35° NNE 18:36:29 10° E
